Location: Banksville Park
(38.5557°N, 75.1182°W)
Time: 18:48:52
(UTC+00:00)

SAR-Lupe-1 - Pass Details

Date: 21 January 2021
Orbit: 482 x 484 km, 98.2° (Epoch: 02 March)

Event Time Altitude Azimuth Distance (km) Brightness Sun altitude
Exits shadow 23:00:27 - 32° (NNE) 1,857 6.6 -10.0°
Reaches altitude 10° 23:00:57 10° 36° (NE) 1,667 6.3 -10.0°
Maximum altitude 23:04:07 29° 98° (E) 908 4.9 -10.6°
Drops below altitude 10° 23:07:15 10° 160° (SSE) 1,655 6.7 -11.2°
Sets 23:09:29 0° 172° (S) 2,529 7.8 -11.6°
